This is the latest recevied weather packets stored in our database for station/object WV6L-13. If no packets are shown the sender has not sent any weather packets the latest 10 day(s).
| Time | Temp. | Humidity | Pressure | Rain* | Wind** | Luminosity | Snow |
|---|---|---|---|---|---|---|---|
| 1777731594 | 13.89° C | 28% | 927.9 hPa | - | - | - | - |
| 1777731295 | 12.78° C | 30% | 927.9 hPa | - | - | - | - |
| 1777730994 | 11.67° C | 31% | 927.8 hPa | - | - | - | - |
| 1777730694 | 11.67° C | 30% | 927.6 hPa | - | - | - | - |
| 1777730395 | 10.56° C | 32% | 927.9 hPa | - | - | - | - |
| 1777730095 | 10° C | 33% | 927.8 hPa | - | - | - | - |
| 1777729794 | 10° C | 32% | 927.6 hPa | - | - | - | - |
| 1777729495 | 9.44° C | 31% | 927.5 hPa | - | - | - | - |
| 1777729194 | 9.44° C | 32% | 927.6 hPa | - | - | - | - |
| 1777728594 | 9.44° C | 32% | 927.4 hPa | - | - | - | - |
| 1777728294 | 9.44° C | 32% | 927.6 hPa | - | - | - | - |
| 1777727994 | 9.44° C | 32% | 927.4 hPa | - | - | - | - |
| 1777727695 | 8.89° C | 33% | 927.4 hPa | - | - | - | - |
| 1777727395 | 8.89° C | 33% | 927.5 hPa | - | - | - | - |
| 1777726795 | 8.89° C | 33% | 927.4 hPa | - | - | - | - |
| 1777726495 | 9.44° C | 32% | 927.2 hPa | - | - | - | - |
| 1777725894 | 10° C | 32% | 927.2 hPa | - | - | - | - |
| 1777725595 | 10° C | 32% | 927.1 hPa | - | - | - | - |
| 1777725295 | 10° C | 33% | 926.9 hPa | - | - | - | - |
| 1777724995 | 10° C | 32% | 927 hPa | - | - | - | - |
| 1777724695 | 10° C | 33% | 927.1 hPa | - | - | - | - |
| 1777724394 | 9.44° C | 33% | 927 hPa | - | - | - | - |
| 1777724095 | 9.44° C | 32% | 927 hPa | - | - | - | - |
| 1777723795 | 10° C | 32% | 927 hPa | - | - | - | - |
| 1777723494 | 10.56° C | 31% | 927 hPa | - | - | - | - |
* Rain since midnight (hover to see other rain measurements)
** Current wind speed in m/s (hover to see current wind gust speed)